User: anonymous   Login
Location: Melbourne
(37.8170°S, 144.9670°E)
Time: 09:20:14
(UTC+10:00)
Language:

ERBS - Orbit

View from above orbital plane
View from above orbital plane
View from above satellite
View from above satellite

Ground track
Ground track

The orbit data is extracted from the following two-line orbital elements,

1 15354U 84108B   18111.56603604 +.00004254 +00000-0 +95152-4 0  9992
2 15354 057.0072 248.5699 0009632 006.5926 353.5255 15.45693714845585
Epoch (UTC): 21 April 2018 13:35:05
Eccentricity: 0.0009632
inclination: 57.0072°
perigee height: 423 km
apogee height: 436 km
right ascension of ascending node: 248.5699°
argument of perigee: 6.5926°
revolutions per day: 15.45693714
mean anomaly at epoch: 353.5255°
orbit number at epoch: 84558

The dashed part of the orbit path shows where the satellite is in the earth's shadow,  

DLR